Location: Agadir Mansour Mhndou
(31.2424°N, 8.7730°W)
Time: 18:21:55
(UTC+00:00)

Meteor 1-11 - Pass Details

Date: 16 October 2021
Orbit: 841 x 886 km, 81.2° (Epoch: 07 December)

Event Time Altitude Azimuth Distance (km) Brightness Sun altitude
Rises 19:41:24 0° 358° (N) 3,402 7.4 -22.0°
Reaches altitude 10° 19:43:53 10° 3° (N) 2,466 6.6 -22.5°
Enters shadow 19:49:10 55° 72° (ENE) 1,016 4.2 -23.6°
